Weather History for KOSC - December, 2013

Change the Weather History Date:

Tuesday, December 24, 2013

  Actual Average Record
Temperature  
Mean Temperature 4 °F -  
Max Temperature 13 °F 29 °F 46 °F (2006)
Min Temperature -6 °F 15 °F -6 °F (2013)
Degree Days  
Heating Degree Days 62    
Moisture  
Dew Point 0 °F    
Average Humidity 77    
Maximum Humidity 87    
Minimum Humidity 60    
Precipitation  
Precipitation 0.00 in - - ()
Sea Level Pressure  
Sea Level Pressure 30.38 in    
Wind  
Wind Speed 7 mph (NW)    
Max Wind Speed 13 mph    
Max Gust Speed 16 mph    
Visibility 10 miles    
Events Snow    
Averages and records for this station are not official NWS values.
T = Trace of Precipitation, MM = Missing Value Source: NWS Daily Summary

Daily Weather History Graph

Daily Weather History Graph

Search for Another Location

Airport or City:

Trip Planner

Search our weather history database for the weather conditions in past years. The results will help you decide how hot, cold, wet, or windy it might be!

Date:

Astronomy

Dec. 24, 2013 Rise Set
Actual Time 8:08 AM EST 4:58 PM EST
Civil Twilight 7:34 AM EST 5:32 PM EST
Nautical Twilight 6:57 AM EST 6:08 PM EST
Astronomical Twilight 6:22 AM EST 6:44 PM EST
Moon No Moon Rise 11:46 AM EST (12/24)
Length of Visible Light 9h 57m
Length of Day
8h 50m
Waning Gibbous, 59% of the Moon is Illuminated
Dec 24
Waning Gibbous
Dec 25
Last Quarter
Jan 1
New
Jan 7
First Quarter
Jan 15
Full

Hourly Weather History & Observations

Time (EST) Temp. Windchill Dew Point Humidity Pressure Visibility Wind Dir Wind Speed Gust Speed Precip Events Conditions
12:14 AM 3.6 °F -5.7 °F 0.1 °F 86% 30.28 in 10.0 mi NW 4.6 mph - N/A   Clear
12:33 AM 1.8 °F -7.8 °F -1.7 °F 86% 30.28 in 10.0 mi NW 4.6 mph - N/A   Clear
12:54 AM 1.6 °F - -1.8 °F 86% 30.28 in 10.0 mi North - - N/A   Clear
1:14 AM 1.8 °F - -1.7 °F 86% 30.28 in 10.0 mi North - - N/A   Clear
1:33 AM 1.8 °F - -1.8 °F 85% 30.28 in 10.0 mi North - - N/A   Clear
1:54 AM 1.0 °F - -2.6 °F 85% 30.28 in 10.0 mi North - - N/A   Clear
2:14 AM 1.9 °F - -1.8 °F 84% 30.28 in 10.0 mi North - - N/A   Clear
2:33 AM 2.1 °F - -1.8 °F 83% 30.28 in 10.0 mi North - - N/A   Clear
2:54 AM 2.3 °F -12.4 °F -1.7 °F 84% 30.29 in 10.0 mi NW 9.2 mph - N/A   Clear
3:14 AM 2.3 °F -10.2 °F -1.7 °F 84% 30.30 in 10.0 mi NW 6.9 mph - N/A   Scattered Clouds
3:33 AM 3.2 °F -7.8 °F -0.6 °F 84% 30.30 in 10.0 mi NW 5.8 mph - N/A   Mostly Cloudy
3:54 AM 3.0 °F - -1.1 °F 83% 30.30 in 10.0 mi North - - N/A   Mostly Cloudy
4:14 AM 2.7 °F - -1.3 °F 84% 30.31 in 10.0 mi North - - N/A   Mostly Cloudy
4:33 AM 3.4 °F - -0.6 °F 84% 30.30 in 10.0 mi North - - N/A   Mostly Cloudy
4:54 AM 4.1 °F -11.1 °F -0.0 °F 83% 30.30 in 10.0 mi NW 10.4 mph - N/A   Mostly Cloudy
5:14 AM 4.5 °F -9.8 °F 0.3 °F 83% 30.31 in 10.0 mi NW 9.2 mph - N/A   Overcast
5:33 AM 3.9 °F -10.4 °F -0.2 °F 83% 30.31 in 10.0 mi NW 9.2 mph - N/A Snow Light Snow
5:54 AM 4.1 °F -11.1 °F 0.1 °F 84% 30.32 in 10.0 mi NW 10.4 mph - N/A   Overcast
6:14 AM 4.5 °F -9.8 °F 0.5 °F 84% 30.32 in 10.0 mi NW 9.2 mph - N/A   Overcast
6:34 AM 4.6 °F -10.4 °F 0.5 °F 83% 30.33 in 10.0 mi NW 10.4 mph - N/A   Overcast
6:54 AM 4.6 °F -8.5 °F 0.5 °F 83% 30.33 in 10.0 mi NW 8.1 mph - N/A   Overcast
7:14 AM 4.6 °F -10.4 °F 0.5 °F 83% 30.34 in 10.0 mi NW 10.4 mph - N/A   Overcast
7:34 AM 4.5 °F -8.7 °F 0.5 °F 84% 30.35 in 10.0 mi NW 8.1 mph - N/A   Overcast
7:54 AM 3.7 °F -8.4 °F -0.2 °F 84% 30.36 in 10.0 mi NW 6.9 mph - N/A   Overcast
8:14 AM 2.5 °F - -1.3 °F 84% 30.36 in 10.0 mi North - - N/A   Scattered Clouds
8:34 AM 1.4 °F - -2.2 °F 85% 30.37 in 10.0 mi North - - N/A   Clear
8:54 AM 2.7 °F - -1.1 °F 84% 30.38 in 10.0 mi North - - N/A   Clear
9:14 AM 4.1 °F -10.2 °F 0.3 °F 84% 30.38 in 10.0 mi NW 9.2 mph - N/A   Clear
9:34 AM 6.1 °F -8.7 °F 1.9 °F 83% 30.39 in 10.0 mi NW 10.4 mph - N/A   Clear
9:54 AM 7.3 °F -7.9 °F 2.8 °F 82% 30.39 in 10.0 mi NNW 11.5 mph - N/A   Clear
10:13 AM 8.1 °F -7.7 °F 3.0 °F 80% 30.40 in 10.0 mi NW 12.7 mph - N/A   Clear
10:34 AM 9.1 °F -5.6 °F 3.2 °F 77% 30.41 in 10.0 mi NNW 11.5 mph - N/A   Clear
10:54 AM 9.9 °F -4.0 °F 3.4 °F 75% 30.41 in 10.0 mi NNW 10.4 mph - N/A   Clear
11:13 AM 10.4 °F -3.3 °F 3.6 °F 74% 30.41 in 10.0 mi NNW 10.4 mph - N/A   Clear
11:34 AM 11.3 °F -1.3 °F 3.9 °F 72% 30.41 in 10.0 mi NNW 9.2 mph 16.1 mph N/A   Clear
11:54 AM 12.0 °F -2.0 °F 2.3 °F 65% 30.41 in 10.0 mi NNW 11.5 mph - N/A   Clear
12:13 PM 12.0 °F -2.0 °F 1.8 °F 64% 30.40 in 10.0 mi NNW 11.5 mph - N/A   Clear
12:34 PM 12.4 °F 0.9 °F 2.3 °F 64% 30.41 in 10.0 mi NNW 8.1 mph - N/A   Clear
12:54 PM 12.6 °F 0.2 °F 2.3 °F 64% 30.41 in 10.0 mi NNW 9.2 mph 12.7 mph N/A   Clear
1:14 PM 12.7 °F 0.4 °F 1.9 °F 62% 30.41 in 10.0 mi NNW 9.2 mph - N/A   Clear
1:34 PM 13.1 °F 2.8 °F 2.5 °F 63% 30.41 in 10.0 mi NNW 6.9 mph - N/A   Clear
1:54 PM 13.3 °F 4.2 °F 2.3 °F 62% 30.42 in 10.0 mi NW 5.8 mph - N/A   Scattered Clouds
2:14 PM 13.1 °F 2.8 °F 2.5 °F 63% 30.42 in 10.0 mi NW 6.9 mph - N/A   Scattered Clouds
2:34 PM 13.6 °F 7.7 °F 2.5 °F 61% 30.43 in 10.0 mi NNW 3.5 mph - N/A   Scattered Clouds
2:54 PM 13.6 °F 4.6 °F 2.3 °F 61% 30.43 in 10.0 mi NNW 5.8 mph - N/A   Clear
3:13 PM 13.3 °F 4.2 °F 2.1 °F 61% 30.43 in 10.0 mi NNW 5.8 mph - N/A   Clear
3:34 PM 12.7 °F 2.4 °F 1.9 °F 62% 30.44 in 10.0 mi WNW 6.9 mph - N/A   Clear
3:54 PM 13.3 °F 5.6 °F 1.8 °F 60% 30.44 in 10.0 mi NNW 4.6 mph - N/A   Clear
4:13 PM 12.4 °F 4.6 °F 1.2 °F 61% 30.45 in 10.0 mi NNW 4.6 mph - N/A   Clear
4:34 PM 12.0 °F 5.9 °F 1.2 °F 62% 30.46 in 10.0 mi NW 3.5 mph - N/A   Clear
4:54 PM 11.3 °F - 0.9 °F 63% 30.46 in 10.0 mi Calm Calm - N/A   Clear
5:13 PM 9.3 °F 2.8 °F 0.7 °F 68% 30.46 in 10.0 mi North 3.5 mph - N/A   Clear
5:34 PM 5.2 °F - -1.8 °F 73% 30.46 in 10.0 mi Calm Calm - N/A   Clear
5:54 PM 3.0 °F - -0.9 °F 84% 30.47 in 10.0 mi Calm Calm - N/A   Clear
6:13 PM 1.4 °F - -2.2 °F 85% 30.47 in 10.0 mi Calm Calm - N/A   Clear
6:34 PM -0.0 °F - -4.4 °F 82% 30.48 in 7.0 mi Calm Calm - N/A   Clear
6:54 PM -2.7 °F - -5.8 °F 87% 30.48 in 10.0 mi Calm Calm - N/A   Clear
7:13 PM -3.8 °F -14.4 °F -6.9 °F 87% 30.49 in 10.0 mi WSW 4.6 mph - N/A   Clear
7:34 PM -6.7 °F -15.5 °F -11.2 °F 81% 30.49 in 10.0 mi WSW 3.5 mph - N/A   Clear
7:50 PM -5.4 °F -16.2 °F -8.9 °F 85% 30.49 in 10.0 mi SW 4.6 mph - N/A   Clear